[[{"header":{"parameterUnit":"m.s-1","parameterCategory":1,"la1":30.2991,"la2":30.254,"lo1":-89.0895,"lo2":-89.0444,"dy":0.0017,"dx":0.0017,"nx":28,"ny":28,"refTime":"2024-06-27T09:00:00:Z","depth":0,"parameterNumber":2,"parameterNumberName":"U-component_of_WINDS"},"data":[0,0,0,0,0,0,0,0,0,0,0,0,0,0,0,0,0,0,0,0,0,0,0,0,0,0,0,0,0,0,0,0,0,0,0,0,0,0,0,0,0,0,0,0,0,0,0,0,0,0,0,0,0,0,0,0,0,0,3.8489,3.849,0,3.8601,3.8602,3.8603,3.8567,3.8565,3.8562,3.856,3.8675,3.868,3.8686,0,0,0,0,0,0,0,0,0,0,0,0,0,3.8241,3.8246,3.8489,3.849,3.8491,3.8601,3.8602,3.8604,3.8567,3.8565,3.8562,3.8559,3.8673,3.868,3.8686,0,0,0,0,0,0,0,0,0,0,0,0,0,3.8351,3.8248,3.8488,3.8486,3.8487,3.86,3.8602,3.8604,3.8568,3.8564,3.8561,3.8557,3.8671,3.8679,3.8687,3.8809,0,0,3.8711,3.8715,0,0,0,0,0,0,0,0,3.8345,3.836,3.8485,3.8487,3.8488,3.8566,3.8557,3.8673,3.8569,3.8538,3.856,3.8556,3.8642,3.8652,3.8681,3.8814,3.8819,3.8712,3.8717,3.872,3.8723,0,0,0,0,0,0,0,3.8337,3.8355,3.8533,3.8487,3.8489,3.848,3.8491,3.8579,3.8609,3.854,3.8538,3.8551,3.8642,3.8673,3.8683,3.8821,3.8712,3.8719,3.8724,3.8727,3.9055,3.9059,0,0,0,0,0,0,3.8329,3.8349,3.8529,3.8536,3.8406,3.8487,3.85,3.8545,3.8608,3.8614,3.8554,3.8549,3.8662,3.8674,3.8687,3.883,3.872,3.8728,3.8732,3.9051,3.9056,3.906,0,0,0,0,0,0,3.8324,3.8345,3.8525,3.8442,3.8464,3.8495,3.8546,3.8549,3.858,3.8618,3.8623,3.8581,3.8659,3.8676,3.8778,3.8834,3.8731,3.8739,3.9046,3.9052,3.9058,3.912,0,0,0,0,0,0,3.8317,3.8344,3.8391,3.8443,3.8469,3.8614,3.8549,3.8554,3.8594,3.8589,3.8645,3.8651,3.8658,3.8766,3.8786,3.8843,3.8745,3.9041,3.9049,3.9056,3.9113,3.9127,3.9139,0,0,0,0,0,3.8308,3.8404,3.8393,3.8415,3.8528,3.8617,3.8632,3.8638,3.8599,3.8646,3.867,3.8649,3.8826,3.8777,3.8799,3.8859,3.9038,3.9047,3.9055,3.9107,3.9124,3.9139,0,0,0,0,0,0,3.8358,3.8411,3.8399,3.8516,3.8562,3.8611,3.867,3.8657,3.8715,3.8707,3.8713,3.8726,3.8829,3.8855,3.88,3.8978,3.8926,3.8939,3.8957,3.8974,3.8987,3.8977,3.8751,0,0,0,0,0,3.8383,3.8451,3.8494,3.8593,3.8616,3.864,3.8679,3.8679,3.8727,3.8747,3.8778,3.8826,3.8891,3.8935,3.8998,3.9117,3.9127,3.917,3.9183,3.9193,3.9204,3.9265,3.9283,3.9089,3.9089,3.9089,0,0,3.8434,3.8472,3.8515,3.8603,3.8639,3.8708,3.8656,3.8733,3.8784,3.8759,3.8855,3.888,3.8933,3.9043,3.9093,3.9068,3.926,3.9205,3.9213,3.9218,3.9276,3.9294,3.9311,3.9095,3.9094,3.9093,0,0,3.8562,3.8599,3.8683,3.872,3.8775,3.8789,3.881,3.886,3.8875,3.8973,3.8954,3.9015,3.913,3.9167,3.9201,3.9341,3.9323,3.9362,3.943,3.9489,3.9505,3.9518,3.9564,3.9582,3.9373,3.9374,3.9374,0,3.8619,3.8723,3.8728,3.8805,3.8844,3.8824,3.8908,3.8944,3.9016,3.9043,3.9014,3.9154,3.9189,3.9305,3.9339,3.9369,3.939,3.9354,3.9502,3.9516,3.9528,3.9573,3.959,3.9378,3.9377,3.9377,3.9376,0,3.8788,3.886,3.8922,3.8991,3.9037,3.9117,3.9133,3.9179,3.9176,3.9193,3.929,3.9332,3.9401,3.9429,3.9428,3.9545,3.9527,3.9501,3.9447,3.9551,3.9592,3.9609,3.9383,3.9382,3.9381,3.938,0,0,3.895,3.902,3.9042,3.9071,3.913,3.9185,3.9264,3.9331,3.9368,3.942,3.9484,3.958,3.9555,3.9594,3.9596,3.9649,3.9752,3.9615,3.9616,3.9636,3.988,3.9896,3.9916,3.9742,3.9746,3.9748,3.9874,0,3.9079,3.9217,3.9223,3.9348,3.9413,3.9395,3.9463,3.9505,3.9524,3.9581,3.9601,3.9668,3.9632,3.9654,3.9706,3.9729,3.9801,3.9721,3.9799,3.9802,3.9782,3.9939,3.9957,4.0074,3.9891,3.9894,3.9896,0,3.9249,3.9303,3.9433,3.948,3.9507,3.9568,3.9628,3.9685,3.9732,3.9741,3.9784,3.9778,3.9857,3.9803,3.9911,3.9855,3.9889,3.9905,3.9909,3.9914,3.9852,3.9943,4.0112,4.0127,3.9922,3.992,3.9918,0,3.9348,3.9454,3.9545,3.9572,3.9629,3.9672,3.9698,3.9742,3.978,3.9834,3.9858,3.9921,3.9954,4.0002,4.0012,3.9973,4.0118,4.0067,4.0126,4.0126,4.0155,4.0152,4.0326,4.0183,4.0183,4.0182,4.0182,0,3.9489,3.9569,3.959,3.9645,3.9733,3.974,3.9827,3.985,3.9889,3.9948,3.9938,3.9993,4.0005,4.0062,4.0072,4.0157,4.0173,4.0181,4.0182,4.018,4.0178,4.0199,4.0189,4.0187,4.0186,4.0185,4.0184,0,3.9614,3.9631,3.9728,3.9774,3.9788,3.985,3.9889,3.9942,3.9959,4.0033,4.0051,4.0077,4.0144,4.016,4.024,4.0246,4.0346,4.0341,4.0329,4.0327,4.0384,4.0377,4.0575,4.06,4.0444,4.0445,4.0447,0,3.9701,3.9761,3.9813,3.9851,3.9879,3.9941,3.998,3.999,4.0031,4.0088,4.0133,4.0199,4.0251,4.0358,4.0384,4.0445,4.0439,4.0504,4.0448,4.0442,4.0435,4.0429,4.0434,4.0513,4.0515,4.0516,4.0518,0,3.9852,3.9857,3.9914,3.9973,4.002,4.0067,4.0113,4.0145,4.016,4.0206,4.0274,4.0315,4.0395,4.0459,4.052,4.0546,4.0533,4.0536,4.0552,4.0548,4.0537,4.0539,4.0354,4.053,4.0529,4.0528,4.0527,4.0527,3.9958,4.0009,4.0053,4.0116,4.015,4.0192,4.0243,4.0266,4.0322,4.0388,4.039,4.0463,4.0507,4.0587,4.0616,4.0673,4.0652,4.0677,4.0683,4.0687,4.069,4.0531,4.0684,4.0684,4.0684,4.0683,4.0683,0,4.0105,4.0132,4.019,4.0252,4.0301,4.0286,4.0335,4.0376,4.044,4.0482,4.0534,4.061,4.0672,4.0702,4.0763,4.0802,4.0798,4.0817,4.0813,4.0818,4.0707,4.0685,4.082,4.082,4.082,4.082,4.082,4.0819,4.0187,4.0271,4.0282,4.0383,4.041,4.048,4.0509,4.0547,4.058,4.0665,4.0716,4.0736,4.0773,4.0836,4.0891,4.0899,4.092,4.0941,4.0945,4.084,4.0826,4.0813,4.0792,4.0947,4.0947,4.1051,4.1052,4.1053]},{"header":{"parameterUnit":"m.s-1","parameterCategory":1,"la1":30.2991,"la2":30.254,"lo1":-89.0895,"lo2":-89.0444,"dy":0.0017,"dx":0.0017,"nx":28,"ny":28,"refTime":"2024-06-27T09:00:00:Z","depth":0,"parameterNumber":3,"parameterNumberName":"V-component_of_WINDS"},"data":[0,0,0,0,0,0,0,0,0,0,0,0,0,0,0,0,0,0,0,0,0,0,0,0,0,0,0,0,0,0,0,0,0,0,0,0,0,0,0,0,0,0,0,0,0,0,0,0,0,0,0,0,0,0,0,0,0,0,4.1805,4.1806,0,4.1973,4.1975,4.1977,4.1958,4.1955,4.1952,4.195,4.2121,4.2127,4.2134,0,0,0,0,0,0,0,0,0,0,0,0,0,4.1465,4.1471,4.1804,4.1806,4.1809,4.1972,4.1975,4.1977,4.1958,4.1955,4.1952,4.1949,4.2118,4.2127,4.2135,0,0,0,0,0,0,0,0,0,0,0,0,0,4.1621,4.1473,4.1804,4.1819,4.1822,4.1972,4.1975,4.1978,4.1959,4.1955,4.1951,4.1947,4.2116,4.2126,4.2136,4.2282,0,0,4.2168,4.2173,0,0,0,0,0,0,0,0,4.1612,4.1633,4.1815,4.1818,4.1822,4.194,4.1918,4.2079,4.196,4.1907,4.195,4.1945,4.2064,4.2078,4.2119,4.229,4.2297,4.2169,4.2176,4.218,4.2183,0,0,0,0,0,0,0,4.1601,4.1626,4.1871,4.1817,4.1822,4.1817,4.1834,4.1948,4.2006,4.1911,4.191,4.193,4.2065,4.2108,4.2122,4.2299,4.2169,4.2178,4.2185,4.2189,4.2597,4.2601,0,0,0,0,0,0,4.1587,4.1617,4.1866,4.1876,4.1705,4.1826,4.1846,4.1906,4.2004,4.2016,4.1934,4.1929,4.2092,4.211,4.2128,4.2304,4.218,4.219,4.2196,4.2592,4.2598,4.2602,0,0,0,0,0,0,4.158,4.1609,4.1859,4.1746,4.1778,4.1836,4.1904,4.1912,4.1955,4.2021,4.2031,4.1968,4.209,4.2113,4.2243,4.231,4.2195,4.2204,4.2587,4.2594,4.26,4.2657,0,0,0,0,0,0,4.157,4.1607,4.1663,4.1748,4.1784,4.1972,4.1908,4.1918,4.1974,4.1969,4.2056,4.2067,4.2089,4.2228,4.2254,4.2322,4.2213,4.2581,4.259,4.2598,4.265,4.2665,4.2678,0,0,0,0,0,4.1558,4.1672,4.1666,4.1696,4.1855,4.1976,4.1996,4.202,4.1979,4.2036,4.2078,4.2064,4.2298,4.2241,4.2271,4.2343,4.2577,4.2587,4.2597,4.2643,4.2662,4.2678,0,0,0,0,0,0,4.1594,4.1684,4.1678,4.1823,4.1892,4.1972,4.2045,4.2039,4.212,4.2113,4.2138,4.2158,4.2288,4.2329,4.2263,4.2488,4.2432,4.2449,4.2457,4.2475,4.2489,4.2477,4.2221,0,0,0,0,0,4.1618,4.1709,4.1783,4.1904,4.1939,4.1986,4.2039,4.2051,4.2123,4.2152,4.2204,4.2274,4.2363,4.2422,4.2508,4.2656,4.2674,4.272,4.2734,4.2745,4.2759,4.2839,4.286,4.2636,4.2636,4.2635,0,0,4.1671,4.1731,4.1787,4.1913,4.1967,4.206,4.201,4.2111,4.2179,4.2167,4.2293,4.2334,4.2413,4.2552,4.2616,4.259,4.2825,4.2758,4.2767,4.2775,4.2852,4.2873,4.2892,4.2643,4.2641,4.264,0,0,4.1813,4.1868,4.1974,4.203,4.2114,4.2144,4.217,4.2252,4.2278,4.2405,4.2397,4.2479,4.2633,4.269,4.2739,4.2902,4.2891,4.2929,4.3004,4.3081,4.3099,4.3115,4.3172,4.3192,4.2943,4.2943,4.2943,0,4.1866,4.2006,4.203,4.2131,4.2186,4.218,4.2287,4.234,4.2448,4.2485,4.2455,4.2647,4.27,4.2852,4.2892,4.2932,4.2961,4.2919,4.3095,4.3111,4.3126,4.318,4.3202,4.2947,4.2946,4.2946,4.2946,0,4.2068,4.2165,4.2241,4.2345,4.2409,4.2513,4.2551,4.2613,4.2619,4.2653,4.2781,4.2845,4.2943,4.298,4.2988,4.3133,4.3114,4.3089,4.3033,4.3151,4.3202,4.3224,4.2953,4.2951,4.295,4.2949,0,0,4.2237,4.2352,4.238,4.2426,4.2518,4.2593,4.2697,4.2793,4.2845,4.2919,4.3006,4.3136,4.3113,4.3168,4.3182,4.325,4.3374,4.3217,4.3219,4.3243,4.3537,4.3555,4.3579,4.3368,4.3372,4.3375,4.353,0,4.2387,4.257,4.2594,4.2756,4.2845,4.2841,4.293,4.2996,4.303,4.311,4.3147,4.3239,4.3202,4.3235,4.3303,4.3345,4.3433,4.3334,4.3447,4.3451,4.3427,4.3606,4.3625,4.3768,4.355,4.3554,4.3556,0,4.2587,4.2666,4.2837,4.2916,4.2955,4.3035,4.3125,4.3202,4.3276,4.3296,4.3358,4.3363,4.3469,4.3409,4.3554,4.3486,4.3534,4.3561,4.3567,4.3578,4.351,4.362,4.3814,4.3835,4.3589,4.3586,4.3584,0,4.2691,4.2841,4.2963,4.3003,4.3099,4.3155,4.3197,4.3267,4.3324,4.3402,4.3439,4.3529,4.3577,4.3646,4.3675,4.3629,4.3818,4.3761,4.3837,4.3836,4.3876,4.3873,4.4079,4.3909,4.3908,4.3908,4.3907,0,4.2856,4.296,4.3011,4.3086,4.3202,4.3229,4.3343,4.3383,4.3446,4.3527,4.3529,4.3605,4.3639,4.372,4.3743,4.3859,4.3882,4.39,4.3905,4.39,4.3897,4.393,4.3921,4.3914,4.3912,4.3911,4.391,0,4.2992,4.303,4.3162,4.3242,4.3264,4.3346,4.3414,4.3486,4.3519,4.3622,4.3648,4.37,4.3796,4.3832,4.3949,4.3964,4.4098,4.4095,4.4073,4.4074,4.4147,4.414,4.4382,4.4414,4.4223,4.4225,4.4226,0,4.3094,4.3174,4.3262,4.3317,4.3361,4.345,4.3508,4.3537,4.3596,4.3686,4.3747,4.3843,4.3921,4.4074,4.4122,4.4211,4.4209,4.4288,4.4222,4.4214,4.4209,4.4203,4.4211,4.43,4.4302,4.4303,4.4304,0,4.327,4.3285,4.3368,4.3458,4.3527,4.3599,4.3669,4.3714,4.3753,4.382,4.3918,4.3979,4.4098,4.4193,4.4284,4.4326,4.4322,4.4325,4.4347,4.4342,4.4325,4.4334,4.4105,4.4319,4.4317,4.4316,4.4316,4.4315,4.3392,4.3462,4.3535,4.3628,4.3683,4.3749,4.382,4.3862,4.3945,4.4045,4.4057,4.4162,4.4233,4.4355,4.4402,4.4484,4.4463,4.4495,4.4503,4.451,4.4515,4.4313,4.4501,4.4501,4.45,4.45,4.45,0,4.3567,4.3614,4.3699,4.3796,4.3869,4.3859,4.3936,4.3997,4.409,4.4157,4.4234,4.4346,4.4438,4.4493,4.4585,4.464,4.464,4.4663,4.4659,4.4668,4.4529,4.4501,4.4661,4.4661,4.4661,4.4661,4.4661,4.4661,4.3667,4.3786,4.3809,4.3956,4.4002,4.4105,4.415,4.421,4.4263,4.4389,4.4466,4.4501,4.4563,4.4659,4.4743,4.4756,4.4789,4.4814,4.4826,4.4695,4.4678,4.4662,4.4635,4.4821,4.4822,4.4958,4.4959,4.496]}]]